User: anonymous   Login
Location: Trois-Rivi�res
(46.3500°N, 72.5500°W)
Time: 14:11:15
(UTC-05:00)
Language:

SJ-11-01 - Orbit

View from above orbital plane
View from above orbital plane
View from above satellite
View from above satellite

Ground track
Ground track

The orbit data is extracted from the following two-line orbital elements,

1 36088U 09061A   17057.56948529  .00000065  00000-0  23196-4 0  9995
2 36088  98.1530 107.3211 0010080 251.1276 108.8837 14.59917821388507
Epoch (UTC): 26 February 2017 13:40:03
Eccentricity: 0.0010080
inclination: 98.1530°
perigee height: 686 km
apogee height: 700 km
right ascension of ascending node: 107.3211°
argument of perigee: 251.1276°
revolutions per day: 14.59917821
mean anomaly at epoch: 108.8837°
orbit number at epoch: 38850

The dashed part of the orbit path shows where the satellite is in the earth's shadow,  

DLR